Regional Weather Roundup
Issued by NWS Newport/Morehead, NC

Current Version | Previous Version | Text Only | Print | Product List | Glossary On
Versions: 1 2 3 4 5 6 7 8 9 10 11 12 13 14 15 16 17 18 19 20 21 22 23 24 25 26 27 28 29 30 31 32 33 34 35 36 37 38 39 40 41 42 43 44 45 46 47 48 49 50
000 ASUS42 KMHX 252013 RWRMHX WEATHER ROUNDUP FOR EASTERN NORTH CAROLINA NATIONAL WEATHER SERVICE NEWPORT/MOREHEAD CITY NC 400 PM EDT FRI MAY 25 2018 NOTE: "FAIR" INDICATES FEW OR NO CLOUDS BELOW 12,000 FEET WITH NO SIGNIFICANT WEATHER AND/OR OBSTRUCTIONS TO VISIBILITY NCZ015>017-031-032-045>047-102-103-252100- NORTH COAST CITY SKY/WX TMP DP RH WIND PRES REMARKS EDENTON FAIR 85 65 52 S8 30.03F ELIZABETH CITY FAIR 83 64 52 SW12 30.02F KITTY HAWK FAIR 80 64 59 S9G17 30.03F MANTEO FAIR 79 66 63 S16 30.05F $$ NCZ045>047-081-094-103-104-252100- CENTRAL COAST CITY SKY/WX TMP DP RH WIND PRES REMARKS FRISCO FAIR 82 69 64 S10 30.07F $$ NCZ095-097-098-100-101-252100- SOUTHERN COAST CITY SKY/WX TMP DP RH WIND PRES REMARKS BEAUFORT FAIR 80 72 76 SW13 30.05F CEDAR ISLAND NOT AVBL JACKSONVILLE FAIR 83 67 58 S12 30.04F PINEY ISLAND NOT AVBL WILMINGTON FAIR 82 70 66 SE7 30.04F $$ NCZ011>013-027>030-043-044-078>080-089-090>093-098-252100- COASTAL PLAIN CITY SKY/WX TMP DP RH WIND PRES REMARKS AHOSKIE FAIR 83 62 50 S5 30.02F CLINTON FAIR 81 73 77 CALM 30.04F ELIZABETHTOWN FAIR 83 71 66 S13 30.04F GOLDSBORO PTSUNNY 84 66 54 S6 30.01F GREENVILLE FAIR 86 63 45 SW7 30.04F HAVELOCK PTSUNNY 82 71 69 S8 30.05F KENANSVILLE LGT RAIN 73 70 88 SW8G16 30.05R KINSTON PTSUNNY 84 66 54 SE10 30.03F NEW BERN PTSUNNY 82 69 64 S9 30.05F RICHLANDS FAIR 83 69 62 S14G20 30.04F ROCKY MOUNT FAIR 85 65 51 S6 30.02F WASHINGTON PTSUNNY 85 65 51 S6 30.03F WHITEVILLE FAIR 83 71 67 SE7 30.03F $$ AMZ130-135-150-152-154-156-158-170-250-252-270-ANZ085-086-088-633-658-670-252100- MARINE OBSERVATIONS STATION/POSITION TIME TEMP WIND PRES WAVE SWELL AIR SEA DIR/SP/G HT/PER HT/PER (UTC) (F) (DEG/KT/KT) (MB) (FT/S) (FT/S) CHESAPEAKE LIGHT NOT AVBL 64 E VA BEACH 1950 71 71 180/ 6/ 6 1018.3 2/ 9 2/ 9 DUCK 1942 79 73 180/ 12/ 16 1016.7 2 E DUCK 2000 73 N/A 2/ 3 OREGON INLET 1942 77 78 180/ 14/ 18 1017.9 13E OREGON INLT 1948 73 N/A 2/ 8 2/ 8 HATTERAS CG 1942 79 76 170/ 9/ 12 1018.0 DIAMOND BUOY 2000 77 78 180/ 14/ 16 1018.3 CAPE LOOKOUT 2000 200/ 8/ 11 1017.9 BEAUFORT LAB 1942 78 79 200/ 8/ 12 1018.0 30 SE NEW RVR IN 1908 78 78 180/ 8/ 12 1018.3 30 SE NEW RVR IN 2000 78 N/A 3/ 9 27 SE WRIGHTSVLE 1908 77 76 180/ 10/ 14 1018.2 5 SE WRIGHTSVLE 1908 76 75 170/ 8/ 10 1017.4 225 S CAPE HAT 2000 80 150/ 6/ 8 1018.0 41 SE CHARLESTON 1950 77 150/ 10/ 12 1017.2 3/ 8 2/ 8 $$

USA.gov is the U.S. government's official web portal to all federal, state and local government web resources and services.